Regional Weather Roundup
Issued by NWS

Home | Current Version | Previous Version | Graphics & Text | Print | Product List | Glossary On
Versions: 1 2 3 4 5 6 7 8 9 10 11 12 13 14 15 16 17 18 19 20 21 22 23 24 25 26 27 28 29 30 31 32 33 34 35 36 37 38 39 40 41 42 43 44 45 46 47 48 49 50
000
ASUS43 KFSD 060402
RWRSD

WEATHER ROUNDUP FOR SOUTH DAKOTA
NATIONAL WEATHER SERVICE SIOUX FALLS SD
1000 PM CST THU MAR 05 2015

NOTE: "FAIR" INDICATES FEW OR NO CLOUDS BELOW 12,000 FEET WITH NO
SIGNIFICANT WEATHER AND/OR OBSTRUCTIONS TO VISIBILITY.


SDZ001>005-009-010-012>017-060500-
NORTHWEST AND NORTH CENTRAL SOUTH DAKOTA

CITY           SKY/WX    TMP DP  RH WIND       PRES   REMARKS
BUFFALO          N/A     28  13  53 W7        30.02F WCI  21
FAITH            N/A     29  10  45 W7        30.10R WCI  22
MOBRIDGE       CLEAR     22  13  68 SE7       30.06S WCI  13
$$

SDZ012>016-024>037-041>051-057-063-072>074-060500-
SOUTHWEST AND SOUTH CENTRAL SOUTH DAKOTA

CITY           SKY/WX    TMP DP  RH WIND       PRES   REMARKS
RAPID CTY ARPT CLEAR     29  15  56 SW3       30.14S
PIERRE         CLEAR     25  17  72 W5        30.10F WCI  19
CUSTER         CLEAR     27  13  55 W7        30.12S WCI  19
ELLSWORTH AFB  CLEAR     26  16  65 W5        30.12S WCI  21
PHILIP         CLEAR     24  15  68 W8        30.13F WCI  15
PINE RIDGE     CLEAR     24  18  77 SW6       30.18S WCI  17
SPEARFISH      FAIR      34  16  47 W10       30.13S WCI  26
WINNER         FAIR      34  19  54 W13       30.14R WCI  25
$$

SDZ004>011-016>023-039-040-060500-
NORTHEAST SOUTH DAKOTA

CITY           SKY/WX    TMP DP  RH WIND       PRES   REMARKS
ABERDEEN       CLEAR     10   4  76 S5        30.12S WCI   2
WATERTOWN      CLEAR     16   6  65 S15       30.12F WCI   1
$$

SDZ017-020-022-023-036>040-048>070-060500-
SOUTHEAST SOUTH DAKOTA

CITY           SKY/WX    TMP DP  RH WIND       PRES   REMARKS
SIOUX FALLS    CLEAR     22   7  52 S15       30.20F WCI   9
HURON          CLEAR     22   7  52 S9        30.13F WCI  12
MITCHELL       CLEAR     26   7  44 S12       30.16F WCI  16
YANKTON        CLEAR     27   7  43 SE7       30.22F WCI  19
$$

ABBREVIATIONS USED IN REMARKS
   TC - TEMPERATURE IN CELSIUS
  WCI - WIND CHILL INDEX
   HX - HEAT INDEX
  VSB - VISIBILITY



USA.gov is the U.S. government's official web portal to all federal, state and local government web resources and services.